Content
SEND FEEDBACK

Daily
Averages
Monthly
Summary
United States of America

WELLSTON, MICHIGAN


Home > North America > United States > Michigan
Elevation: 755 feet     Latitude: 44 15N     Longitude: 085 57W

WEATHER
 
SELECT A DAY
Number of Records: 452,508;   Date Range: 1/1/95 - 7/26/14
 
SHARE

PRINT THIS DATA

[ ← Previous Day ]
WEATHER ALMANAC - JANUARY 31, 2013
[ Next Day → ]
[ °C ]   °F
Weather ElementAverageHighLow
Temperature17.9 °F21.2 °F (12:35 am)15.8 °F (7:15 pm)
Dewpoint9 °F15.8 °F (12:55 am)3.2 °F (10:15 pm)
Humidity68.5 %80 % (12:55 am)58 % (12:55 pm)
Barometer29.65 in29.91 in (11:55 pm)29.37 in (12:35 am)
Wind Speed17.6 mph25.3 mph (5:15 am)
Wind Gust33.4 mph (5:35 am)
Weather ElementAverage
Visibility3 mi
Wind DirectionWNW (304.4 °)

Weather ElementTotal
Precipitation---
Heating Degree Days46.5 (Base 65)
Averaged from 68 records on January 31, 2013
WEATHER CONDITIONS BREAKOUT
WIND DIRECTION BREAKOUT
WEATHER BY HOUR - JANUARY 31, 2013
[ °C ]   °F
Local TimeTemperatureDewpointHumidityBarometerVisibilityWind DirectionWind SpeedGust SpeedPrecipitationEventsConditions
12:35 AM21.2 °F14.0 °F74 %29.37 in2.0 miWNW (300°)23.0 mph29.9 mphOvercast
12:55 AM21.2 °F15.8 °F80 %29.39 in2.0 miNW (310°)19.6 mph29.9 mphOvercast
1:15 AM21.2 °F14.0 °F74 %29.39 in1.5 miWNW (300°)23.0 mph32.2 mphOvercast
1:35 AM21.2 °F12.2 °F68 %29.40 in2.0 miWNW (300°)20.7 mph32.2 mphOvercast
1:55 AM19.4 °F12.2 °F74 %29.41 in2.5 miWNW (300°)23.0 mph28.8 mphOvercast
2:15 AM19.4 °F12.2 °F74 %29.42 in2.0 miWNW (300°)23.0 mph26.5 mphOvercast
2:35 AM19.4 °F10.4 °F68 %29.43 in3.0 miNW (310°)19.6 mph27.6 mphOvercast
2:55 AM19.4 °F12.2 °F74 %29.45 in2.5 miWNW (300°)15.0 mph29.9 mphOvercast
3:15 AM19.4 °F12.2 °F74 %29.45 in1.0 miWNW (300°)20.7 mph27.6 mphOvercast
3:35 AM19.4 °F14.0 °F80 %29.46 in1.0 miWNW (300°)23.0 mph31.1 mphOvercast
3:55 AM19.4 °F12.2 °F74 %29.46 in1.0 miWNW (300°)23.0 mph29.9 mphOvercast
4:15 AM19.4 °F12.2 °F74 %29.47 in1.8 miWNW (300°)20.7 mph29.9 mphOvercast
4:35 AM19.4 °F12.2 °F74 %29.48 in1.0 miWNW (300°)20.7 mph28.8 mphOvercast
4:55 AM19.4 °F12.2 °F74 %29.48 in0.8 miWNW (300°)21.9 mph31.1 mphOvercast
5:15 AM19.4 °F12.2 °F74 %29.49 in0.8 miWNW (290°)25.3 mph31.1 mphOvercast
5:35 AM17.6 °F12.2 °F79 %29.50 in0.8 miWNW (290°)24.2 mph33.4 mphOvercast
5:55 AM17.6 °F10.4 °F73 %29.51 in1.0 miWNW (300°)24.2 mph27.6 mphOvercast
6:15 AM17.6 °F10.4 °F73 %29.52 in1.5 miWNW (290°)24.2 mph32.2 mphOvercast
6:35 AM17.6 °F8.6 °F68 %29.53 in2.5 miNW (310°)19.6 mph26.5 mphOvercast
7:15 AM17.6 °F6.8 °F63 %29.54 in3.0 miWNW (290°)20.7 mph32.2 mphOvercast
7:35 AM17.6 °F8.6 °F68 %29.55 in2.5 miWNW (300°)18.4 mph29.9 mphOvercast
7:55 AM17.6 °F6.8 °F63 %29.56 in3.0 miWNW (290°)16.1 mph29.9 mphOvercast
8:15 AM17.6 °F6.8 °F63 %29.57 in1.5 miWNW (300°)19.6 mph26.5 mphOvercast
8:35 AM17.6 °F6.8 °F63 %29.58 in9.0 miWNW (300°)17.3 mph21.9 mphOvercast
8:55 AM17.6 °F6.8 °F63 %29.58 in2.5 miWNW (300°)18.4 mph29.9 mphOvercast
9:15 AM17.6 °F6.8 °F63 %29.60 in9.0 miWNW (300°)13.8 mph21.9 mphOvercast
9:35 AM17.6 °F6.8 °F63 %29.61 in7.0 miWNW (300°)20.7 mph29.9 mphOvercast
9:55 AM17.6 °F6.8 °F63 %29.62 in1.8 miWNW (300°)20.7 mph27.6 mphOvercast
10:15 AM17.6 °F6.8 °F63 %29.63 in3.0 miNW (310°)16.1 mphOvercast
10:35 AM17.6 °F6.8 °F63 %29.64 in5.0 miWNW (300°)17.3 mph24.2 mphOvercast
10:55 AM17.6 °F8.6 °F68 %29.65 in2.5 miWNW (300°)18.4 mph25.3 mphOvercast
11:15 AM17.6 °F6.8 °F63 %29.67 in5.0 miNW (310°)16.1 mph21.9 mphOvercast
11:35 AM17.6 °F8.6 °F68 %29.68 in0.8 miNW (310°)16.1 mph25.3 mphOvercast
11:55 AM17.6 °F8.6 °F68 %29.68 in1.0 miWNW (300°)19.6 mph26.5 mphOvercast
12:15 PM17.6 °F6.8 °F63 %29.68 in0.8 miWNW (290°)19.6 mph27.6 mphOvercast
12:35 PM17.6 °F6.8 °F63 %29.68 in1.8 miWNW (300°)15.0 mph24.2 mphOvercast
12:55 PM17.6 °F5.0 °F58 %29.69 in1.5 miWNW (300°)18.4 mph24.2 mphOvercast
1:15 PM17.6 °F6.8 °F63 %29.69 in2.0 miWNW (290°)19.6 mphOvercast
1:35 PM17.6 °F6.8 °F63 %29.70 in4.0 miNW (310°)12.7 mph21.9 mphOvercast
1:55 PM17.6 °F5.0 °F58 %29.70 in2.0 miWNW (300°)12.7 mph21.9 mphOvercast
2:15 PM17.6 °F6.8 °F63 %29.71 in2.5 miNW (320°)12.7 mph19.6 mphOvercast
2:35 PM17.6 °F6.8 °F63 %29.72 in1.2 miNW (310°)12.7 mphOvercast
2:55 PM17.6 °F10.4 °F73 %29.72 in1.8 miWNW (300°)15.0 mphOvercast
3:15 PM17.6 °F6.8 °F63 %29.73 in8.0 miWNW (300°)12.7 mph19.6 mphOvercast
3:35 PM17.6 °F6.8 °F63 %29.73 in2.5 miWNW (290°)17.3 mph23.0 mphMostly Cloudy
3:55 PM17.6 °F12.2 °F79 %29.74 in1.8 miNW (310°)10.4 mphOvercast
4:15 PM17.6 °F8.6 °F68 %29.75 in2.5 miWNW (300°)17.3 mph24.2 mphMostly Cloudy
4:35 PM17.6 °F10.4 °F73 %29.75 in8.0 miNW (310°)13.8 mphOvercast
4:55 PM17.6 °F12.2 °F79 %29.76 in1.8 miWNW (290°)11.5 mph17.3 mphOvercast
5:15 PM17.6 °F10.4 °F73 %29.77 in2.0 miWNW (300°)12.7 mph18.4 mphOvercast
5:35 PM17.6 °F10.4 °F73 %29.77 in3.0 miWNW (300°)17.3 mph21.9 mphOvercast
5:55 PM17.6 °F10.4 °F73 %29.78 in1.0 miNW (310°)13.8 mph18.4 mphOvercast
6:15 PM17.6 °F10.4 °F73 %29.79 in1.5 miWNW (300°)13.8 mph21.9 mphOvercast
6:35 PM17.6 °F12.2 °F79 %29.80 in1.2 miNW (320°)11.5 mph19.6 mphOvercast
7:15 PM15.8 °F10.4 °F79 %29.81 in1.2 miWNW (300°)15.0 mphOvercast
7:35 PM17.6 °F10.4 °F73 %29.82 in3.0 miNW (320°)12.7 mph21.9 mphMostly Cloudy
8:15 PM17.6 °F8.6 °F68 %29.83 in3.0 miNW (320°)16.1 mph24.2 mphOvercast
8:35 PM17.6 °F8.6 °F68 %29.83 in10.0 miNW (320°)12.7 mph17.3 mphMostly Cloudy
8:55 PM17.6 °F6.8 °F63 %29.84 in7.0 miNW (320°)17.3 mph20.7 mphOvercast
9:15 PM17.6 °F6.8 °F63 %29.85 in4.0 miNW (320°)16.1 mph23.0 mphOvercast
9:35 PM17.6 °F5.0 °F58 %29.86 in9.0 miNW (320°)16.1 mph23.0 mphOvercast
9:55 PM17.6 °F5.0 °F58 %29.87 in9.0 miNW (320°)16.1 mph21.9 mphOvercast
10:15 PM15.8 °F3.2 °F58 %29.88 in5.0 miNW (320°)17.3 mph25.3 mphMostly Cloudy
10:35 PM15.8 °F3.2 °F58 %29.88 in5.0 miNW (310°)18.4 mph24.2 mphOvercast
10:55 PM15.8 °F6.8 °F68 %29.89 in5.0 miNW (310°)13.8 mph21.9 mphOvercast
11:15 PM15.8 °F6.8 °F68 %29.89 in3.0 miNW (320°)18.4 mph23.0 mphMostly Cloudy
11:35 PM15.8 °F10.4 °F79 %29.90 in1.8 miNW (320°)15.0 mph20.7 mphOvercast
11:55 PM15.8 °F6.8 °F68 %29.91 in2.5 miNW (320°)19.6 mph27.6 mphMostly Cloudy
Hourly data recorded from KMBL, located miles away from Wellston, Michigan







STORIES FROM OUR PARTNERS